Iliamna, AK

6:42 AM AKST on January 17, 2017 (GMT -0900)
Iliamna

Weather History for PAIL - March, 2014

Change the Weather History Date:

Saturday, March 29, 2014

  Actual Average Record
Temperature  
Mean Temperature 28 °F -  
Max Temperature 39 °F 33 °F 50 °F (1983)
Min Temperature 18 °F 20 °F -19 °F (1944)
Degree Days  
Heating Degree Days 36    
Moisture  
Dew Point 17 °F    
Average Humidity 61    
Maximum Humidity 81    
Minimum Humidity 35    
Precipitation  
Precipitation 0.00 in - - ()
Sea Level Pressure  
Sea Level Pressure 29.81 in    
Wind  
Wind Speed 5 mph (NNW)    
Max Wind Speed 8 mph    
Max Gust Speed -    
Visibility 10 miles    
Events      
Averages and records for this station are not official NWS values.
T = Trace of Precipitation, MM = Missing Value Source: NWS Daily Summary

Daily Weather History Graph

Daily Weather History Graph

Search for Another Location

Airport or City:

Trip Planner

Search our weather history database for the weather conditions in past years. The results will help you decide how hot, cold, wet, or windy it might be!

Date:

Astronomy

Mar. 29, 2014 Rise Set
Actual Time 7:53 AM AKDT 8:56 PM AKDT
Civil Twilight 7:11 AM AKDT 9:38 PM AKDT
Nautical Twilight 6:19 AM AKDT 10:31 PM AKDT
Astronomical Twilight 5:20 AM AKDT 11:30 PM AKDT
Moon 7:22 AM AKDT (3/29) 8:08 PM AKDT (3/29)
Length of Visible Light 14h 27m
Length of Day
13h 03m
Waning Crescent, 1% of the Moon is Illuminated
Mar 29
Waning Crescent
Mar 30
New
Apr 7
First Quarter
Apr 14
Full
Apr 21
Last Quarter

Hourly Weather History & Observations

Time (AKDT) Temp. Windchill Dew Point Humidity Pressure Visibility Wind Dir Wind Speed Gust Speed Precip Events Conditions
12:53 AM 24.1 °F 19.7 °F 16.0 °F 71% 29.76 in 10.0 mi NE 3.5 mph - N/A   Clear
1:53 AM 24.1 °F 19.7 °F 15.1 °F 69% 29.75 in 10.0 mi North 3.5 mph - N/A   Clear
2:53 AM 19.9 °F 12.1 °F 14.0 °F 78% 29.76 in 10.0 mi NNW 5.8 mph - N/A   Clear
3:53 AM 19.0 °F 9.0 °F 14.0 °F 81% 29.76 in 10.0 mi NNW 8.1 mph - N/A   Clear
4:53 AM 19.0 °F 11.1 °F 14.0 °F 81% 29.77 in 10.0 mi North 5.8 mph - N/A   Scattered Clouds
5:53 AM 19.9 °F 13.4 °F 15.1 °F 81% 29.76 in 10.0 mi North 4.6 mph - N/A   Partly Cloudy
6:53 AM 21.9 °F 13.4 °F 16.0 °F 78% 29.76 in 10.0 mi North 6.9 mph - N/A   Clear
7:53 AM 21.9 °F 14.5 °F 16.0 °F 78% 29.76 in 10.0 mi North 5.8 mph - N/A   Clear
8:53 AM 25.0 °F 16.3 °F 17.1 °F 72% 29.78 in 10.0 mi North 8.1 mph - N/A   Overcast
9:53 AM 28.0 °F 20.8 °F 17.1 °F 63% 29.78 in 10.0 mi North 6.9 mph - N/A   Mostly Cloudy
10:53 AM 30.0 °F - 17.1 °F 59% 29.80 in 10.0 mi Calm Calm - N/A   Overcast
11:53 AM 34.0 °F 28.0 °F 18.0 °F 52% 29.81 in 10.0 mi NNE 6.9 mph - N/A   Mostly Cloudy
12:53 PM 37.0 °F 31.0 °F 19.0 °F 48% 29.81 in 10.0 mi North 8.1 mph - N/A   Clear
1:53 PM 39.0 °F 35.7 °F 18.0 °F 43% 29.82 in 10.0 mi NNE 4.6 mph - N/A   Partly Cloudy
2:53 PM 37.9 °F - 19.9 °F 48% 29.82 in 10.0 mi Calm Calm - N/A   Partly Cloudy
3:53 PM 37.9 °F 33.5 °F 19.9 °F 48% 29.83 in 10.0 mi South 5.8 mph - N/A   Partly Cloudy
4:53 PM 37.9 °F 33.5 °F 19.9 °F 48% 29.83 in 10.0 mi South 5.8 mph - N/A   Partly Cloudy
5:53 PM 37.9 °F 32.7 °F 19.9 °F 48% 29.84 in 10.0 mi South 6.9 mph - N/A   Scattered Clouds
6:53 PM 39.0 °F 34.8 °F 19.9 °F 46% 29.85 in 10.0 mi WSW 5.8 mph - N/A   Partly Cloudy
7:53 PM 37.0 °F 31.6 °F 19.9 °F 50% 29.86 in 10.0 mi West 6.9 mph - N/A   Partly Cloudy
8:53 PM 32.0 °F 28.7 °F 21.0 °F 64% 29.88 in 10.0 mi West 3.5 mph - N/A   Partly Cloudy
9:53 PM 28.9 °F 21.1 °F 17.1 °F 61% 29.90 in 10.0 mi West 8.1 mph - N/A   Partly Cloudy
10:53 PM 28.0 °F 24.2 °F 18.0 °F 66% 29.91 in 10.0 mi NNW 3.5 mph - N/A   Clear
11:53 PM 27.0 °F 21.6 °F 17.1 °F 66% 29.94 in 10.0 mi NNW 4.6 mph - N/A   Clear